Regional Weather Roundup
Issued by NWS

Home | Current Version | Previous Version | Graphics & Text | Print | Product List | Glossary On
Versions: 1 2 3 4 5 6 7 8 9 10 11 12 13 14 15 16 17 18 19 20 21 22 23 24 25 26 27 28 29 30 31 32 33 34 35 36 37 38 39 40 41 42 43 44 45 46 47 48 49 50
000
ASUS43 KMPX 241701
RWRMN
WEATHER ROUNDUP FOR MINNESOTA
NATIONAL WEATHER SERVICE TWIN CITIES/CHANHASSEN MN
1200 PM CDT WED MAY 24 2017


NOTE: "FAIR" INDICATES FEW OR NO CLOUDS BELOW 12,000 FEET WITH NO
SIGNIFICANT WEATHER AND/OR OBSTRUCTIONS TO VISIBILITY. N/A MEANS
CURRENT SKY AND/OR WEATHER CONDITIONS ARE NOT AVAILABLE.

MNZ060>063-068>070-241800-
   Twin Cities Metro

CITY           SKY/WX    TMP DP  RH WIND       PRES   REMARKS
TWIN CITIES    PTSUNNY   58  44  60 NE7       29.74F
ST PAUL        CLOUDY    57  46  66 VRB7      29.75F
CRYSTAL        FAIR      59  44  57 N8        29.74F
BLAINE         PTSUNNY   59  46  63 NE7       29.75F
LAKEVILLE      CLOUDY    54  46  76 NW6       29.74F
EDEN PRAIRIE   FAIR      58  46  64 NE9       29.73F
SOUTH ST PAUL  PTSUNNY   58  44  60 NE5       29.74F
LAKE ELMO      CLOUDY    55  46  71 N6        29.75F
$$
MNZ001>005-007-008-013>017-022>024-027-028-241800-
   Northwest Minnesota

CITY           SKY/WX    TMP DP  RH WIND       PRES   REMARKS
BEMIDJI        FAIR      60  40  49 SE10G17   29.79F
HALLOCK        FAIR      64  37  36 SE18      29.74F
ROSEAU         FAIR      63  41  45 SE9       29.77F
WARROAD        FAIR      61  48  63 NE8       29.78F
CROOKSTON      FAIR      63  41  45 SE14G20   29.76F
FOSSTON        FAIR      61  46  59 E7G16     29.78F
DETROIT LAKES  PTSUNNY   57  41  54 SE9       29.78F
MOORHEAD       FAIR      61  43  51 SE7       29.76F
PARK RAPIDS    PTSUNNY   61  38  42 E13       29.77F
MAHNOMEN       FAIR      60  40  48 E9G18     29.77F
$$
MNZ006-009>011-018-025>026-241800-
   North Central Minnesota

CITY           SKY/WX    TMP DP  RH WIND       PRES   REMARKS
BAUDETTE       FAIR      63  39  41 E8        29.79F
FLAG ISLAND    FAIR      57  45  62 S8        29.78F
INTL FALLS     FAIR      62  38  40 E9G16     29.80F
WASKISH        CLOUDY    64  43  45 SE12      29.79F
BIG FORK       FAIR      61  37  41 NE8       29.79F
LONGVILLE      PTSUNNY   57  41  54 SE8       29.79S
GRAND RAPIDS   PTSUNNY   57  41  55 SE8G18    29.80F
CRANE LAKE     FAIR      61  36  39 NE9       29.81F
COOK           FAIR      61  36  39 NE8G17    29.80F
WALKER         FAIR      57  42  56 E6        29.79F
$$
MNZ012-019>021-037-241800-
   Northeast Minnesota

CITY           SKY/WX    TMP DP  RH WIND       PRES   REMARKS
DULUTH         PTSUNNY   56  44  64 E14G21    29.79F
ELY            FAIR      57  36  44 E9        29.79F
HIBBING        CLOUDY    57  39  51 E8        29.79F
EVELETH        FAIR      58  32  37 E9G18     29.80F
DULUTH HARBOR  CLOUDY    48  45  87 NE12      29.82F
TWO HARBORS    PTSUNNY   57  46  67 E10G17    29.79F
SILVER BAY     CLOUDY    55  43  62 E8        29.80F
GRAND MARAIS     N/A     49  38  65 NE9       29.82F
G MARAIS ARPRT CLOUDY    55  36  47 NE3       29.82F
$$
MNZ029>031-032-039>041-046>048-054>057-064-241800-
   West Central Minnesota

CITY           SKY/WX    TMP DP  RH WIND       PRES   REMARKS
FERGUS FALLS   CLOUDY    57  45  62 S5        29.76F
WHEATON        PTSUNNY   59  45  58 SE8       29.78F
MORRIS         PTSUNNY   59  48  67 CALM      29.76F
ALEXANDRIA     CLOUDY    57  42  57 NE10      29.77F
ELBOW LAKE     CLOUDY    56  44  62 SE5       29.77F
WADENA         PTSUNNY   57  43  58 E12       29.76F
GLENWOOD       PTSUNNY   57  45  62 NE10      29.77F
APPLETON       PTSUNNY   57  45  62 NE6       29.76F
BENSON         PTSUNNY   61  43  51 SE3       29.78F
ORTONVILLE     CLOUDY    55  45  67 SE6       29.77F
MADISON        CLOUDY    59  46  63 CALM      29.77F
WILLMAR        CLOUDY    57  45  62 NE10      29.78S
$$
MNZ033>034-036-042>043-049>051-058-059-241800-
   Central Minnesota

CITY           SKY/WX    TMP DP  RH WIND       PRES   REMARKS
ST CLOUD       CLOUDY    55  45  68 NE6       29.76F
SAUK CENTRE    CLOUDY    54  42  66 NE7       29.78F
PAYNESVILLE    CLOUDY    54  41  62 NE3       29.78S
AITKIN         PTSUNNY   55  43  62 E10G18    29.77S
PINE RIVER     CLOUDY    57  45  62 E13       29.82F
BRAINERD       CLOUDY    55  41  59 E6        29.78F
STAPLES        PTSUNNY   55  39  54 NE8       29.78F
LONG PRAIRIE   CLOUDY    54  41  62 NE7       29.78F
LITTLE FALLS   CLOUDY    54  43  66 E6        29.78S
LITCHFIELD     CLOUDY    57  46  67 NE7       29.76F
BUFFALO        PTSUNNY   56  44  64 NE8       29.76F
MAPLE LAKE     PTSUNNY   59  48  66 E7        29.77S
HUTCHINSON     PTSUNNY   58  48  70 NE8       29.77S
$$
MNZ037-044-045-052-053-241800-
   East Central Minnesota

CITY           SKY/WX    TMP DP  RH WIND       PRES   REMARKS
PRINCETON      CLOUDY    57  46  67 NE5       29.76F
MORA           CLOUDY    55  41  58 NE7       29.78F
CAMBRIDGE      CLOUDY    59  45  58 NE5       29.74F
RUSH CITY      CLOUDY    55  44  65 NE5       29.76F
MOOSE LAKE     PTSUNNY   55  43  62 E8G17     29.77S
HINCKLEY       CLOUDY    55  45  67 E7        29.77F
CLOQUET        PTSUNNY   55  43  62 E14G20    29.78F
MCGREGOR       CLOUDY    55  45  67 E10       29.79F
$$
MNZ071>073-080-081-089-090-097-098-241800-
   Southwest Minnesota

CITY           SKY/WX    TMP DP  RH WIND       PRES   REMARKS
MONTEVIDEO     FAIR      61  48  63 E5        29.76F
CANBY          FAIR      58  46  66 CALM      29.78F
MARSHALL       PTSUNNY   55  44  66 NE5       29.77F
REDWOOD FALLS  CLOUDY    59  43  55 N7        29.75F
OLIVIA         CLOUDY    55  41  58 NE10G16   29.75F
PIPESTONE      FAIR      57  41  54 E6        29.75F
WINDOM         FAIR      55  45  67 NE5       29.76F
WORTHINGTON    PTSUNNY   54  45  71 NE9       29.76F
JACKSON        PTSUNNY   54  45  71 VRB7      29.76S
TRACY          PTSUNNY   55  47  73 E5        29.77F
SLAYTON        FAIR      53  45  73 NE8       29.78F
$$
MNZ065>067-074>077-082>085-091>093-241800-
   South Central Minnesota

CITY           SKY/WX    TMP DP  RH WIND       PRES   REMARKS
MANKATO        CLOUDY    52  46  80 NE8       29.75
NEW ULM        PTSUNNY   54  45  71 NE6       29.75F
ST JAMES       FAIR      55  46  71 N9        29.76F
FAIRMONT       CLOUDY    51  46  83 N8        29.76F
GLENCOE        CLOUDY    54  48  80 NE6       29.75F
FARIBAULT      CLOUDY    54  46  76 N8        29.75S
OWATONNA       CLOUDY    54  46  76 N9        29.74S
WASECA         PTSUNNY   54  48  82 N8        29.75F
ALBERT LEA     CLOUDY    55  52  88 N9        29.73S
$$
MNZ078>079-086>088-094>096-241800-
   Southeast Minnesota

CITY           SKY/WX    TMP DP  RH WIND       PRES   REMARKS
ROCHESTER      CLOUDY    56  49  77 N12G20    29.73F
RED WING       FAIR      61  43  51 E5        29.71F
STANTON        CLOUDY    56  47  73 NE7       29.73F
DODGE CENTER   PTSUNNY   54  46  76 N9        29.73F
WINONA         CLOUDY    59  46  63 E8        29.71F
AUSTIN         CLOUDY    54  48  82 NE8       29.72F
PRESTON        CLOUDY    57  46  67 NE14      29.71F
$$
ABBREVIATIONS USED IN REMARKS
   TC - TEMPERATURES IN CELSIUS
  WCI - WIND CHILL INDEX
   HX - HEAT INDEX
  VSB - VISIBILITY
$$




USA.gov is the U.S. government's official web portal to all federal, state and local government web resources and services.